Lamar, CO

6:27 PM MST on December 10, 2016 (GMT -0700)
Lamar Municipal

Weather History for KLAA - September, 2012

Change the Weather History Date:

Friday, September 21, 2012

  Actual Average Record
Temperature  
Mean Temperature 66 °F 64 °F  
Max Temperature 87 °F 81 °F 103 °F (1926)
Min Temperature 44 °F 48 °F 28 °F (1983)
Degree Days  
Heating Degree Days 0 4  
Month to date heating degree days 37 35  
Since 1 July heating degree days 37 40  
Cooling Degree Days 1 3  
Month to date cooling degree days 101 104  
Year to date cooling degree days 1617 1093  
Growing Degree Days 17 (Base 50)    
Moisture  
Dew Point 32 °F    
Average Humidity 35    
Maximum Humidity 56    
Minimum Humidity 13    
Precipitation  
Precipitation 0.00 in 0.05 in 1.44 in (1997)
Month to date precipitation 0.16  
Year to date precipitation 4.54  
Sea Level Pressure  
Sea Level Pressure 29.98 in    
Wind  
Wind Speed 5 mph (SSW)    
Max Wind Speed 10 mph    
Max Gust Speed 14 mph    
Visibility 10 miles    
Events      
T = Trace of Precipitation, MM = Missing Value Source: NWS Daily Summary

Daily Weather History Graph

Daily Weather History Graph

Search for Another Location

Airport or City:

Trip Planner

Search our weather history database for the weather conditions in past years. The results will help you decide how hot, cold, wet, or windy it might be!

Date:

Astronomy

Sep. 21, 2012 Rise Set
Actual Time 6:38 AM MDT 6:48 PM MDT
Civil Twilight 6:11 AM MDT 7:14 PM MDT
Nautical Twilight 5:41 AM MDT 7:45 PM MDT
Astronomical Twilight 5:09 AM MDT 8:16 PM MDT
Moon 12:55 PM MDT (9/21) 10:57 PM MDT (9/21)
Length of Visible Light 13h 02m
Length of Day
12h 10m
Waxing Crescent, 38% of the Moon is Illuminated
Sep 21
Waxing Crescent
Sep 22
First Quarter
Sep 29
Full
Oct 8
Last Quarter
Oct 15
New

Hourly Weather History & Observations

Time (MDT) Temp. Dew Point Humidity Pressure Visibility Wind Dir Wind Speed Gust Speed Precip Events Conditions
12:53 AM 55.0 °F 35.1 °F 47% 29.95 in 10.0 mi Calm Calm - N/A   Clear
1:53 AM 50.0 °F 33.1 °F 52% 29.97 in 10.0 mi SSW 6.9 mph - N/A   Clear
2:53 AM 48.9 °F 33.1 °F 54% 29.95 in 10.0 mi SSW 8.1 mph - N/A   Clear
3:53 AM 48.0 °F 32.0 °F 54% 29.95 in 10.0 mi WSW 3.5 mph - N/A   Clear
4:53 AM 48.0 °F 34.0 °F 58% 29.96 in 10.0 mi SW 5.8 mph - N/A   Clear
5:53 AM 48.0 °F 34.0 °F 58% 29.97 in 10.0 mi SW 6.9 mph - N/A   Clear
6:53 AM 48.0 °F 34.0 °F 58% 30.01 in 10.0 mi SW 5.8 mph - N/A   Clear
7:53 AM 52.0 °F 36.0 °F 54% 30.02 in 10.0 mi West 6.9 mph - N/A   Clear
8:53 AM 60.1 °F 35.1 °F 39% 30.03 in 10.0 mi WSW 8.1 mph - N/A   Clear
9:53 AM 66.9 °F 33.1 °F 28% 30.03 in 10.0 mi WSW 8.1 mph - N/A   Clear
10:53 AM 75.0 °F 33.1 °F 22% 30.01 in 10.0 mi NNW 5.8 mph - N/A   Clear
11:53 AM 81.0 °F 33.1 °F 18% 29.99 in 9.0 mi Variable 3.5 mph - N/A   Clear
12:53 PM 82.0 °F 33.1 °F 17% 29.98 in 10.0 mi Variable 3.5 mph - N/A   Clear
1:53 PM 84.9 °F 30.9 °F 14% 29.96 in 10.0 mi Variable 3.5 mph - N/A   Clear
2:53 PM 84.9 °F 30.9 °F 14% 29.95 in 10.0 mi Variable 4.6 mph - N/A   Clear
3:53 PM 86.0 °F 30.0 °F 13% 29.94 in 10.0 mi Variable 5.8 mph - N/A   Clear
4:53 PM 86.0 °F 30.0 °F 13% 29.93 in 10.0 mi ESE 4.6 mph - N/A   Clear
5:53 PM 84.0 °F 30.9 °F 15% 29.94 in 10.0 mi ENE 4.6 mph - N/A   Clear
6:53 PM 75.9 °F 30.9 °F 19% 29.96 in 10.0 mi East 6.9 mph - N/A   Clear
7:53 PM 71.1 °F 30.9 °F 23% 29.98 in 10.0 mi SE 9.2 mph - N/A   Clear
8:53 PM 64.0 °F 30.0 °F 28% 29.99 in 9.0 mi Calm Calm - N/A   Clear
9:53 PM 61.0 °F 30.9 °F 32% 30.00 in 10.0 mi South 4.6 mph - N/A   Clear
10:53 PM 60.1 °F 33.1 °F 36% 30.00 in 10.0 mi Calm Calm - N/A   Clear
11:53 PM 55.9 °F 30.9 °F 39% 30.01 in 10.0 mi Calm Calm - N/A   Clear